GFSSE_850_thetae_132.txt.gz
Theta_e
333 333 331 333 334 334 333 332 329 327 325 324 324 330 333 332 330 325 318 313 314 326 330 327 326 326 316 311 309 312 310 309 308 310 314 319 319 321 316 317 322 324 324
333 333 333 330 332 335 334 332 331 331 331 329 322 315 318 321 324 323 312 312 319 327 325 323 330 320 315 312 308 308 307 307 308 309 312 318 320 321 321 320 320 323 323
334 333 332 328 331 331 332 332 332 332 331 331 325 312 315 317 325 311 311 313 313 323 319 319 318 320 314 313 310 309 309 311 313 314 314 320 323 320 316 317 322 326 324
334 333 326 325 327 330 331 332 332 332 332 331 324 313 313 318 312 310 312 312 312 316 319 321 318 315 313 313 313 313 314 314 314 315 315 315 320 318 318 319 320 322 323
333 324 325 322 328 331 331 332 332 333 332 330 323 316 312 311 311 311 312 312 312 319 317 321 316 315 314 314 314 314 315 315 315 315 315 317 321 322 320 320 321 322 324
328 324 321 321 325 330 332 332 333 331 330 330 327 317 312 311 311 312 312 313 312 317 316 316 316 315 314 314 315 315 316 316 316 317 319 319 324 325 325 325 324 325 325
328 324 317 319 324 326 330 332 332 329 326 328 325 319 312 311 312 312 313 313 313 314 314 314 315 314 314 315 315 316 316 316 319 322 326 326 326 326 325 326 325 325 325
328 321 315 318 323 323 324 325 327 322 329 326 325 317 312 311 312 313 314 314 314 314 314 315 315 315 315 316 316 316 316 317 317 319 322 323 324 324 324 325 324 324 323
327 320 314 314 316 316 318 317 322 325 326 325 321 320 312 312 312 313 314 314 314 314 315 315 315 315 315 316 317 317 317 317 317 316 317 318 322 324 323 324 323 323 321
326 320 317 319 317 315 314 318 320 325 324 320 314 316 311 312 313 313 314 314 315 315 315 315 315 315 315 316 316 317 317 317 317 316 318 324 325 325 323 321 322 320 319
330 321 319 322 319 317 314 314 322 324 320 316 310 311 311 312 312 313 314 315 316 316 316 316 315 315 315 316 317 317 317 317 317 317 320 323 323 322 321 320 320 319 312
332 325 321 323 322 317 314 313 313 316 317 312 310 311 312 312 312 313 314 315 316 317 316 316 316 316 316 317 317 317 317 317 317 317 317 317 318 320 319 318 317 309 302
332 330 323 322 325 322 315 313 314 312 310 310 310 311 311 312 312 313 314 315 316 317 317 317 317 317 317 317 318 318 318 318 318 318 318 316 318 321 318 317 307 302 301
331 332 327 322 323 322 320 315 314 314 312 312 311 311 311 312 312 313 314 315 316 317 318 318 318 318 317 317 318 318 318 318 318 318 318 317 316 318 317 309 301 300 300
331 331 330 326 320 321 321 318 314 313 312 312 311 312 312 312 312 313 314 315 316 316 317 317 317 318 318 318 318 318 318 319 319 319 319 318 315 316 313 309 301 300 301
330 330 331 329 325 318 319 319 315 313 312 311 312 313 313 313 314 315 315 315 315 316 316 317 317 318 318 319 318 318 319 319 318 318 318 318 317 314 312 309 300 298 299
331 330 331 330 328 320 315 316 317 314 313 313 313 314 314 315 315 315 316 316 316 317 317 317 317 318 319 319 319 319 319 318 318 317 317 317 318 316 313 308 300 297 297
331 331 331 331 330 328 320 316 314 314 313 314 315 315 315 316 316 316 317 317 318 319 319 318 318 318 319 319 319 320 319 318 317 317 316 316 315 314 314 308 298 297 296
330 331 331 331 331 329 327 320 317 314 314 314 315 316 316 316 317 317 318 318 319 320 320 320 320 319 319 319 320 320 319 318 318 316 316 316 314 313 313 311 302 297 296
330 331 331 331 331 330 329 327 321 319 314 315 315 315 316 318 318 318 319 319 320 320 321 321 322 320 319 319 321 320 320 319 318 316 316 317 315 313 313 313 313 301 297
328 330 331 331 331 331 330 328 328 323 317 316 316 316 316 317 318 319 319 320 320 321 321 322 323 323 321 320 321 321 319 319 317 317 315 316 315 314 314 314 313 313 304
323 325 330 331 331 331 331 329 326 327 326 320 317 317 317 318 318 319 319 319 320 321 321 322 322 323 323 321 321 321 320 318 317 317 316 316 315 315 315 315 314 314 312
323 323 325 329 330 331 331 330 328 327 327 327 325 320 317 317 318 318 319 319 320 320 320 321 322 323 324 323 322 321 320 319 318 317 317 317 316 316 316 315 314 314 314
323 323 321 326 329 331 331 330 328 326 323 319 320 323 321 318 317 317 318 318 319 319 320 320 321 322 324 323 323 322 321 320 319 318 318 317 317 316 316 316 315 313 311
322 322 323 323 326 329 330 330 329 328 327 324 321 321 319 320 321 319 317 317 318 318 318 319 320 321 322 324 323 322 322 321 321 320 319 319 318 318 319 318 317 314 312
320 321 323 324 322 323 327 330 330 329 329 328 326 324 321 319 317 318 320 319 318 318 318 318 319 321 322 323 324 324 322 321 321 320 320 320 320 320 320 320 319 319 315

GFSSE_850_thetae_138.txt.gz
Theta_e
332 333 335 335 334 335 334 334 334 333 333 333 332 332 330 329 325 316 318 320 326 330 326 316 314 326 317 312 310 311 315 320 325 324 324 325 325 326 323 325 325 324 324
333 332 335 335 334 334 332 328 327 327 327 328 329 332 332 328 324 313 322 324 330 330 322 313 310 309 309 310 312 314 313 314 314 315 321 324 326 325 324 324 324 324 324
332 332 334 334 334 334 330 330 330 330 329 326 317 317 322 322 315 312 326 329 329 330 322 315 311 311 312 313 314 314 314 314 314 315 320 326 324 323 322 324 323 324 325
332 332 331 333 334 333 331 332 331 331 331 329 315 320 321 320 311 317 327 326 329 328 322 313 313 313 313 314 314 314 314 314 314 317 322 327 327 325 325 324 325 326 328
333 333 330 328 331 331 331 332 332 332 329 328 315 325 323 313 316 317 327 326 329 327 315 313 313 313 314 314 314 314 315 317 319 324 325 326 328 326 326 326 326 326 327
334 332 324 322 329 330 332 332 332 331 329 328 318 320 318 313 313 318 322 323 329 327 314 314 313 314 314 314 315 316 317 320 326 328 327 326 326 326 327 325 326 325 325
334 324 324 325 328 330 332 332 333 331 329 328 320 320 318 313 312 313 317 320 327 323 314 313 314 314 314 314 314 315 316 317 322 324 325 326 325 325 325 323 324 323 323
329 322 323 325 327 330 332 333 332 329 329 329 326 314 314 313 313 313 315 315 317 319 314 314 314 314 314 314 314 314 315 315 317 320 325 325 325 323 325 323 321 321 319
326 324 320 322 326 329 331 331 330 328 328 328 325 318 312 313 313 313 314 314 315 315 315 315 315 314 314 314 314 314 315 315 321 324 326 326 325 325 323 322 320 319 310
329 324 320 317 322 326 328 329 327 327 327 327 322 314 312 312 313 314 314 315 315 315 315 315 315 315 314 314 315 315 314 314 319 323 324 324 324 324 322 320 319 311 302
330 324 320 316 317 321 322 322 323 324 324 324 321 317 312 314 314 315 316 315 316 316 316 315 315 315 315 315 315 315 315 315 317 320 322 320 320 321 320 318 310 301 301
332 325 318 316 316 316 317 318 324 325 321 321 319 319 315 313 314 315 314 315 315 316 316 315 316 315 315 315 316 316 317 316 317 317 317 316 317 319 317 313 304 300 300
333 327 320 318 319 317 316 316 318 320 318 319 319 315 316 313 314 315 315 315 316 316 316 316 316 316 316 316 316 317 317 317 317 317 317 317 317 318 318 313 309 301 299
333 331 323 321 321 319 315 315 315 316 317 316 315 314 314 313 313 314 315 316 316 316 316 316 317 316 316 316 317 317 317 318 318 318 318 318 317 318 316 315 313 305 299
332 332 330 324 322 321 319 316 315 315 314 313 312 312 312 312 312 313 314 315 316 316 316 316 316 316 316 316 317 317 317 318 317 317 317 316 317 316 316 316 314 310 303
331 332 332 330 324 322 322 319 315 315 315 312 311 311 311 312 312 312 313 314 315 315 316 316 316 316 316 317 317 317 318 318 317 317 316 316 315 315 314 314 315 311 304
329 331 331 331 329 324 322 321 319 315 315 314 312 311 311 311 312 312 313 314 314 315 315 316 316 316 317 317 318 318 318 319 317 317 317 316 316 315 315 313 313 314 304
328 331 331 330 331 329 325 321 320 317 315 314 312 311 311 312 312 313 314 314 315 315 316 317 317 317 318 318 319 319 318 319 319 318 317 317 315 315 315 314 314 314 313
324 329 331 330 330 330 329 325 320 318 317 314 313 312 312 313 314 315 315 315 316 316 317 318 319 319 319 319 320 319 319 320 320 319 318 317 316 315 315 315 314 314 313
325 326 330 331 330 330 330 328 324 318 316 316 314 313 313 314 315 315 316 316 316 317 318 318 319 320 321 321 321 320 320 320 320 319 318 317 317 315 315 314 314 314 314
326 325 326 330 330 330 330 330 329 325 318 315 315 314 314 315 315 316 316 316 316 317 318 319 320 320 321 322 322 322 321 321 321 320 319 318 317 317 316 315 315 315 314
323 325 324 326 330 330 330 330 331 329 326 319 315 314 314 314 315 316 317 317 317 317 318 319 320 320 321 322 322 322 322 321 321 320 320 319 318 317 317 317 316 316 316
323 322 325 323 323 329 330 331 331 330 329 327 323 316 314 314 314 315 316 317 318 318 318 319 319 320 321 321 322 322 322 322 322 320 320 320 320 320 320 318 318 318 317
326 322 322 324 323 322 327 331 331 330 331 329 327 324 319 316 316 316 316 316 317 318 318 318 319 319 320 321 322 322 322 322 322 322 322 321 321 321 320 321 320 320 319
328 327 326 323 324 323 323 324 329 330 330 331 330 329 325 325 323 319 317 317 317 318 318 318 319 319 320 320 321 321 321 322 322 323 322 321 322 322 322 323 323 323 322
326 327 327 325 323 323 323 322 322 325 329 330 330 330 329 326 324 325 325 324 322 320 319 319 319 319 320 320 320 321 321 322 322 322 322 322 322 321 321 322 322 321 321

GFSSE_850_thetae_141.txt.gz
Theta_e
338 335 335 335 335 334 335 335 335 334 333 333 333 332 329 328 320 317 320 330 326 323 319 327 316 314 315 315 322 322 320 323 323 326 324 325 326 325 324 325 325 325 324
338 336 335 334 335 334 334 334 333 332 331 333 332 332 332 326 320 319 323 331 328 327 316 312 310 310 315 316 314 314 314 316 320 326 325 321 320 323 324 325 324 323 324
338 334 335 334 334 334 331 328 328 327 326 325 323 324 329 325 317 327 329 332 328 324 316 313 312 313 314 314 314 314 314 314 318 326 327 326 324 323 324 325 326 327 327
338 337 335 334 334 333 331 331 331 330 330 327 319 322 323 321 326 330 325 330 329 329 320 318 314 314 314 314 314 314 315 316 320 326 327 327 326 325 324 325 328 329 329
338 337 333 333 334 332 331 332 332 332 329 327 327 328 326 325 330 330 326 328 328 323 323 317 314 314 314 314 314 316 319 321 325 325 327 327 329 327 326 327 327 326 325
338 340 331 328 331 330 331 332 332 330 328 327 327 326 325 326 328 328 327 328 326 318 320 315 314 314 314 314 315 317 317 319 325 327 329 328 327 328 326 325 324 324 322
338 338 324 325 329 329 332 332 333 330 328 327 327 328 324 319 325 326 328 328 325 315 314 314 314 314 314 314 314 314 314 319 325 328 327 327 326 327 326 324 322 321 318
339 336 327 323 328 330 331 333 333 330 329 326 321 319 315 315 321 322 322 327 325 314 314 314 314 314 314 314 314 314 314 320 326 327 328 327 325 324 322 322 320 317 312
336 334 334 324 326 330 332 333 332 330 329 328 325 314 314 314 320 324 323 323 326 317 314 315 314 314 314 314 314 314 314 322 327 326 327 326 326 325 322 320 318 312 303
334 333 334 335 325 328 331 331 330 329 327 328 325 318 313 313 314 318 323 326 324 318 315 314 315 315 314 314 314 314 314 321 323 324 324 324 324 323 321 319 313 303 301
334 333 333 332 331 334 331 330 329 328 326 325 322 318 315 321 318 316 324 321 315 315 315 315 315 315 315 315 315 315 316 318 322 323 319 318 321 319 318 314 306 301 300
335 333 332 331 331 331 330 326 326 326 327 326 323 320 321 323 322 322 315 315 315 315 315 315 315 315 316 319 315 315 316 316 320 319 316 316 318 318 318 315 310 305 300
334 333 331 331 330 330 329 326 326 326 326 327 328 319 320 322 317 315 314 315 316 316 316 316 316 316 318 319 316 316 316 319 321 320 317 317 318 318 317 315 314 311 301
335 333 330 329 330 329 328 327 327 326 325 329 325 319 317 314 313 315 315 315 316 316 318 316 317 316 316 316 316 316 316 318 320 317 318 317 317 317 316 316 316 314 308
333 334 331 329 329 329 327 327 327 327 325 325 324 315 315 314 312 313 315 315 316 316 317 317 317 316 316 316 316 317 316 317 317 317 316 315 315 315 314 314 313 315 312
333 333 333 330 329 328 326 325 327 325 325 325 325 316 313 314 312 312 313 314 315 316 317 317 317 317 316 316 317 317 317 317 317 317 317 317 316 315 315 314 313 313 313
328 333 333 332 330 327 324 326 325 322 322 323 321 316 312 312 313 312 312 314 315 315 316 316 316 316 316 317 318 318 317 317 318 317 317 317 316 315 315 315 314 314 314
327 332 332 331 331 330 326 324 323 323 318 315 315 312 311 312 312 312 312 313 314 315 315 315 316 317 318 322 322 323 322 320 319 319 318 317 317 316 315 315 314 314 314
328 332 332 331 331 331 329 326 323 321 319 315 315 313 311 311 311 312 312 313 314 314 315 315 318 319 322 322 322 323 324 324 321 320 319 318 317 317 316 315 314 314 314
329 331 332 331 330 330 330 329 327 324 320 318 316 314 312 311 312 313 314 314 315 315 316 316 317 319 320 323 324 324 324 323 321 321 320 319 318 317 316 316 315 315 315
330 329 331 331 330 330 330 330 330 328 324 319 318 316 314 313 312 314 315 316 316 316 316 317 318 319 320 321 324 322 324 322 322 322 321 320 320 318 317 317 316 316 316
329 326 326 326 328 329 330 329 330 329 328 324 318 315 314 313 313 314 315 315 316 316 316 317 318 319 320 324 322 322 321 321 321 322 321 320 320 320 320 319 319 319 318
331 328 324 325 324 325 329 330 329 330 329 328 326 319 314 313 314 314 314 316 316 317 317 317 318 319 320 321 321 323 323 322 323 323 322 322 321 321 321 321 321 321 321
330 328 327 325 324 323 325 329 330 329 330 330 329 326 323 315 314 314 314 315 316 317 317 318 318 318 319 321 323 325 322 322 323 321 322 321 321 321 321 322 322 322 322
328 329 327 327 325 324 325 325 329 330 329 330 330 329 328 325 318 315 314 314 315 315 316 317 318 318 319 319 321 323 321 323 323 322 321 321 321 323 322 321 321 321 321
328 328 328 328 326 324 327 325 324 323 327 330 330 330 330 329 326 323 319 317 316 316 317 317 317 318 318 319 320 321 321 322 321 321 320 322 322 322 321 322 322 321 321

GFSSE_850_thetae_144.txt.gz
Theta_e
335 335 335 335 334 335 335 335 334 334 333 332 333 331 329 323 320 328 330 323 322 330 327 320 319 318 322 320 320 326 326 325 323 321 325 325 325 325 325 325 322 324 326
335 335 335 334 334 334 334 334 333 333 332 331 331 331 330 324 319 327 330 325 316 317 318 316 320 323 315 314 314 315 316 323 326 326 322 321 323 324 323 325 325 327 330
336 334 334 334 334 333 332 330 330 331 333 333 333 332 330 325 323 330 330 327 317 317 314 317 317 314 313 313 313 314 319 325 326 326 326 324 324 326 326 329 329 330 329
338 334 334 334 334 333 329 329 330 329 329 327 326 332 332 328 329 329 329 327 322 319 321 319 316 313 312 313 314 316 321 323 326 326 326 327 326 324 327 327 327 327 327
338 337 334 334 334 333 331 331 331 331 329 327 326 330 327 328 328 327 328 326 323 326 322 318 314 313 312 314 315 317 322 325 327 328 327 328 327 328 324 324 325 323 321
338 338 333 332 333 331 330 332 332 329 326 328 328 328 328 328 328 328 328 324 324 325 321 315 313 312 313 313 314 315 323 324 327 326 328 328 328 327 323 322 322 321 317
337 337 333 329 329 330 331 332 332 329 327 324 324 323 325 327 328 328 327 323 321 322 318 314 313 313 313 313 314 314 320 325 326 326 327 326 326 327 324 321 319 316 311
336 338 328 327 328 329 331 332 332 329 328 322 316 320 318 323 327 327 327 325 318 317 315 313 313 313 313 313 313 314 323 326 325 325 326 326 326 324 322 320 317 311 303
337 336 325 325 328 329 331 332 332 331 328 321 322 313 316 323 326 327 327 326 319 318 314 313 313 313 313 313 313 314 323 325 325 325 325 325 326 324 322 318 312 302 301
336 334 333 326 327 329 331 332 332 330 327 326 323 313 311 314 320 323 325 325 318 314 314 313 313 313 313 314 314 314 319 324 323 321 323 324 322 322 318 314 306 300 300
336 333 334 331 330 330 331 331 330 329 327 327 324 318 312 313 314 318 321 321 315 314 313 313 314 314 314 314 314 315 315 317 321 320 315 317 318 318 317 315 310 305 300
335 333 334 333 328 330 330 331 330 328 326 326 325 319 314 314 313 314 314 314 315 315 314 314 314 314 314 315 315 315 315 317 316 315 316 315 317 318 317 315 314 312 302
335 333 333 333 331 331 330 328 328 326 325 326 322 320 320 321 315 313 314 314 315 315 315 315 315 315 315 319 317 316 315 316 318 317 317 317 317 317 316 315 315 315 309
335 334 333 332 331 331 330 329 325 325 325 327 328 317 317 316 315 314 314 314 315 315 316 316 316 315 316 316 316 315 315 317 318 316 316 315 314 314 314 314 313 314 313
333 333 333 331 330 330 329 327 326 327 325 324 327 320 317 315 313 313 314 314 315 315 316 316 316 316 315 315 315 315 315 316 317 316 316 316 315 315 315 314 313 313 314
334 334 332 332 329 329 328 325 326 327 325 323 323 320 315 315 313 313 315 315 315 315 316 316 316 315 315 315 316 316 316 316 317 317 316 316 316 315 314 314 314 314 313
329 333 333 332 331 329 328 325 323 323 324 320 321 321 315 312 313 313 313 314 314 315 316 317 317 317 316 317 316 317 318 317 317 318 317 317 317 316 315 314 314 314 314
331 329 332 333 332 330 328 326 323 323 320 317 318 318 315 313 313 314 313 313 313 315 315 315 315 316 316 317 318 320 322 320 319 319 319 318 318 317 316 315 314 314 314
327 327 328 331 331 331 330 328 325 323 321 318 316 315 313 311 312 314 314 312 313 314 314 314 315 316 317 318 321 322 323 322 322 321 319 319 318 317 316 315 315 314 314
328 325 326 328 328 330 331 330 328 326 323 320 318 314 314 313 312 311 312 312 313 314 314 314 315 317 318 320 322 322 322 323 324 322 321 320 319 319 317 316 316 316 316
329 330 327 330 325 328 330 330 330 329 326 324 319 317 314 313 312 311 311 312 314 314 314 314 315 316 318 320 323 322 322 324 323 320 321 321 320 319 319 319 319 319 319
330 330 331 329 328 323 327 329 329 330 329 328 325 320 316 314 312 311 311 313 313 314 315 315 316 317 318 320 321 322 320 320 319 321 321 321 320 320 320 320 320 320 320
330 330 330 329 328 325 321 329 330 330 329 329 328 326 321 316 313 312 312 312 314 314 315 315 315 316 317 319 321 321 321 320 322 322 322 321 321 321 321 320 320 321 321
328 330 329 330 329 327 324 323 327 329 329 328 329 328 327 323 316 313 313 313 313 314 315 315 315 316 317 319 320 320 320 321 322 321 321 321 321 320 320 321 321 321 321
325 328 329 329 330 329 328 325 323 328 328 328 329 329 329 328 325 319 314 313 313 314 314 315 316 316 317 318 319 320 321 320 322 321 321 320 321 321 321 321 321 321 321
321 327 328 328 329 331 330 329 327 324 324 328 329 329 329 330 329 326 323 316 314 314 314 314 315 316 317 318 318 319 319 320 319 320 320 319 319 319 320 320 321 321 320

GFSSE_850_thetae_147.txt.gz
Theta_e
334 336 334 333 335 334 334 334 334 333 332 332 331 328 325 321 328 326 320 329 329 324 325 321 323 322 319 322 322 325 324 323 322 324 326 326 325 324 323 325 327 327 328
334 335 335 334 334 334 334 333 332 332 331 329 329 330 326 318 329 329 323 321 324 322 324 326 317 313 313 314 313 319 326 325 324 322 322 324 325 327 326 330 330 330 330
334 335 334 334 334 333 333 331 332 335 334 332 330 331 328 318 330 328 325 319 323 318 319 314 312 312 312 314 317 321 326 325 325 324 324 324 326 329 329 329 328 328 327
334 334 333 334 333 331 329 328 329 329 329 328 325 331 324 322 330 329 325 319 320 325 319 313 312 312 313 316 321 323 325 325 325 325 327 325 327 326 325 326 324 322 319
336 334 334 334 334 331 330 330 330 330 329 328 324 330 330 326 328 327 324 321 328 321 318 315 312 313 315 316 321 325 326 327 326 327 327 327 328 322 320 321 320 318 315
335 333 334 333 333 332 330 331 331 328 325 328 328 326 330 323 327 327 324 326 322 320 318 314 312 313 313 314 322 324 323 326 326 327 328 328 328 325 321 320 317 315 311
337 334 333 332 332 331 330 332 332 328 326 323 325 324 329 325 327 327 324 322 322 323 313 312 312 312 312 313 316 322 323 325 325 326 326 326 328 324 321 319 316 309 303
337 337 333 328 330 330 332 332 332 329 327 320 320 321 324 321 326 327 324 323 321 314 312 312 312 312 312 313 317 323 324 324 324 325 325 326 325 324 321 317 311 302 301
337 337 331 326 326 330 331 332 332 330 327 317 312 311 314 319 324 327 325 315 312 312 312 312 312 312 312 313 318 322 321 323 324 324 324 325 324 322 319 312 305 301 301
336 335 333 324 324 328 331 331 332 330 327 324 317 311 313 321 319 321 324 318 313 312 312 312 312 312 313 313 315 320 321 322 320 319 321 323 321 319 316 313 309 303 300
337 335 333 328 321 327 329 331 332 330 327 326 325 317 311 313 317 315 315 315 313 313 313 313 313 313 313 313 314 315 317 317 317 317 315 316 316 316 317 315 313 310 302
336 336 333 331 326 322 329 330 330 329 326 324 325 319 312 313 313 313 314 317 315 314 314 314 314 313 314 314 314 314 314 316 316 315 316 315 316 316 316 315 315 314 308
335 335 333 333 332 327 325 326 328 329 326 318 323 321 314 313 314 313 313 314 315 314 314 314 314 313 314 314 314 314 315 315 315 316 315 315 315 314 313 313 312 314 311
334 332 332 332 332 329 327 327 327 326 325 323 315 317 315 312 315 314 314 314 315 315 315 314 314 314 314 314 315 315 315 316 316 316 314 314 314 314 314 313 312 314 313
334 331 332 332 332 331 329 329 325 323 322 323 319 313 314 312 314 314 314 313 314 315 315 315 314 314 314 314 314 315 315 315 316 316 316 316 315 314 314 314 313 313 313
332 333 332 332 332 331 330 328 325 323 317 320 321 317 313 312 312 313 313 313 313 314 315 315 314 314 315 315 315 315 316 316 316 317 317 317 316 316 315 314 314 314 314
331 331 331 329 329 331 330 328 326 323 318 317 318 318 317 315 312 313 312 313 313 314 315 315 315 315 315 315 316 316 317 317 317 317 318 318 317 317 316 315 314 314 314
330 330 331 331 330 329 330 329 326 324 320 319 318 318 317 318 315 312 313 313 313 314 314 315 315 315 315 316 316 318 319 319 319 319 319 318 317 317 316 316 315 313 314
327 329 330 330 328 329 330 330 328 325 322 320 321 319 315 316 318 312 313 313 312 313 314 314 315 315 315 316 316 319 320 321 321 320 320 319 318 318 316 316 315 314 314
327 327 327 330 329 331 331 330 330 327 325 323 321 319 316 316 316 314 312 312 312 312 313 314 314 315 314 316 318 320 321 321 322 321 319 320 319 319 318 317 317 317 316
327 328 327 327 329 331 332 330 330 330 328 326 324 322 319 317 315 314 312 311 312 312 312 313 313 314 315 316 319 321 321 321 321 319 319 319 320 319 319 319 319 319 318
326 328 328 327 326 327 329 327 327 329 330 330 327 325 322 319 315 314 312 311 311 312 312 313 314 314 314 316 319 321 321 320 319 318 319 320 320 320 320 319 320 320 320
325 328 329 329 329 327 325 329 329 330 330 329 329 328 326 324 320 316 313 312 311 311 311 312 314 314 314 316 318 320 320 319 319 319 319 319 319 320 320 320 319 320 321
320 325 329 329 329 329 328 328 328 326 327 325 327 328 329 328 326 322 317 313 312 311 311 312 314 314 315 315 319 319 320 320 321 320 320 320 319 319 319 320 319 320 321
321 320 324 329 330 330 330 329 329 329 326 327 327 327 328 329 328 327 324 317 313 312 312 312 313 315 315 315 316 318 319 319 320 320 320 319 319 319 318 318 319 319 320
321 321 320 324 327 330 330 330 330 328 328 328 328 328 327 327 327 328 327 324 320 314 313 313 313 314 315 315 316 317 318 318 319 320 319 318 318 319 319 319 319 320 320